�������l�o���
Date,Time,MP-1(��Sv/h),MP-2(��Sv/h),MP-3(��Sv/h),MP-4(��Sv/h),MP-5(��Sv/h),MP-6(��Sv/h),MP-7(��Sv/h),����,����(m/s),���J
2021/01/18,00:00,0.178,0.159,0.256,0.243,0.239,0.141,0.086,�k�k��,7.5,��
2021/01/18,00:10,0.178,0.159,0.258,0.243,0.238,0.141,0.086,�k�k��,7.3,��
2021/01/18,00:20,0.178,0.159,0.256,0.243,0.240,0.142,0.086,�k�k��,6.5,��
2021/01/18,00:30,0.178,0.160,0.257,0.243,0.238,0.141,0.086,�k�k��,6.2,��
2021/01/18,00:40,0.178,0.159,0.257,0.244,0.239,0.141,0.086,�k�k��,5.2,��
2021/01/18,00:50,0.178,0.158,0.257,0.242,0.238,0.142,0.085,�k��,5.2,��
2021/01/18,01:00,0.178,0.160,0.257,0.242,0.240,0.141,0.086,�k��,4.5,��
2021/01/18,01:10,0.178,0.159,0.257,0.244,0.238,0.141,0.086,�k��,4.3,��
2021/01/18,01:20,0.178,0.159,0.257,0.244,0.239,0.142,0.085,�k��,2.3,��
2021/01/18,01:30,0.177,0.159,0.256,0.242,0.239,0.141,0.086,�k��,4.2,��
2021/01/18,01:40,0.178,0.160,0.257,0.244,0.239,0.140,0.086,�k��,3.8,��
2021/01/18,01:50,0.178,0.159,0.256,0.243,0.239,0.141,0.086,�k�k��,5.9,��
2021/01/18,02:00,0.178,0.159,0.256,0.243,0.239,0.141,0.085,�k�k��,5.9,��
2021/01/18,02:10,0.178,0.160,0.257,0.241,0.240,0.141,0.086,�k�k��,2.5,��
2021/01/18,02:20,0.179,0.159,0.256,0.243,0.239,0.141,0.086,�k��,1.4,��
2021/01/18,02:30,0.178,0.159,0.256,0.244,0.240,0.141,0.086,���k��,1.4,��
2021/01/18,02:40,0.178,0.159,0.257,0.244,0.240,0.142,0.086,�k��,1.4,��
2021/01/18,02:50,0.178,0.160,0.257,0.244,0.239,0.141,0.086,�k�k��,3.9,��
2021/01/18,03:00,0.178,0.160,0.257,0.243,0.238,0.141,0.086,�k,6.8,��
2021/01/18,03:10,0.178,0.160,0.256,0.242,0.239,0.142,0.086,�k�k��,6.0,��
2021/01/18,03:20,0.179,0.159,0.257,0.243,0.240,0.141,0.086,�k�k��,5.5,��
2021/01/18,03:30,0.178,0.160,0.257,0.243,0.239,0.140,0.085,�k�k��,5.4,��
2021/01/18,03:40,0.179,0.160,0.257,0.244,0.239,0.142,0.086,�k�k��,5.9,��
2021/01/18,03:50,0.177,0.160,0.257,0.242,0.238,0.141,0.085,�k�k��,6.2,��
2021/01/18,04:00,0.178,0.159,0.257,0.241,0.239,0.142,0.085,�k�k��,7.1,��
2021/01/18,04:10,0.179,0.160,0.257,0.241,0.239,0.141,0.086,�k�k��,6.7,��
2021/01/18,04:20,0.179,0.160,0.257,0.243,0.239,0.141,0.086,�k�k��,6.0,��
2021/01/18,04:30,0.178,0.159,0.257,0.242,0.239,0.140,0.086,�k�k��,6.3,��
2021/01/18,04:40,0.178,0.159,0.257,0.242,0.239,0.141,0.085,�k�k��,6.5,��
2021/01/18,04:50,0.177,0.160,0.257,0.243,0.239,0.142,0.085,�k��,5.8,��
2021/01/18,05:00,0.178,0.160,0.257,0.242,0.238,0.141,0.086,�k�k��,5.3,��
2021/01/18,05:10,0.178,0.160,0.258,0.241,0.238,0.142,0.085,�k�k��,6.2,��
2021/01/18,05:20,0.177,0.159,0.256,0.243,0.238,0.141,0.086,�k�k��,6.4,��
2021/01/18,05:30,0.178,0.159,0.256,0.241,0.239,0.140,0.085,�k�k��,6.5,��
2021/01/18,05:40,0.177,0.159,0.257,0.242,0.239,0.141,0.085,�k��,6.7,��
2021/01/18,05:50,0.178,0.160,0.255,0.243,0.238,0.140,0.086,�k�k��,7.6,��
2021/01/18,06:00,0.179,0.160,0.257,0.243,0.238,0.141,0.085,�k�k��,8.1,��
2021/01/18,06:10,0.178,0.160,0.256,0.241,0.238,0.140,0.085,�k��,7.9,��
2021/01/18,06:20,0.178,0.160,0.257,0.243,0.239,0.140,0.085,�k��,7.9,��
2021/01/18,06:30,0.178,0.160,0.257,0.243,0.239,0.140,0.086,�k��,6.6,��
2021/01/18,06:40,0.178,0.159,0.257,0.243,0.239,0.141,0.086,�k�k��,6.2,��
2021/01/18,06:50,0.178,0.159,0.256,0.243,0.238,0.140,0.085,�k��,5.7,��
2021/01/18,07:00,0.178,0.159,0.257,0.241,0.237,0.142,0.085,�k��,5.7,��
2021/01/18,07:10,0.178,0.159,0.256,0.243,0.238,0.140,0.087,�k�k��,5.5,��
2021/01/18,07:20,0.178,0.159,0.257,0.242,0.237,0.141,0.085,�k��,4.9,��
2021/01/18,07:30,0.178,0.159,0.257,0.241,0.236,0.140,0.085,�k��,4.3,��
2021/01/18,07:40,0.178,0.160,0.257,0.243,0.238,0.140,0.086,�k��,3.5,��
2021/01/18,07:50,0.178,0.159,0.257,0.242,0.239,0.141,0.086,�k��,3.3,��
2021/01/18,08:00,0.178,0.158,0.256,0.243,0.237,0.141,0.085,�k��,3.1,��
2021/01/18,08:10,0.177,0.159,0.255,0.242,0.237,0.141,0.086,�k��,3.7,��
2021/01/18,08:20,0.177,0.159,0.255,0.240,0.237,0.140,0.085,���k��,3.6,��
2021/01/18,08:30,0.177,0.158,0.256,0.240,0.238,0.140,0.085,�k��,3.7,��
2021/01/18,08:40,0.177,0.159,0.256,0.241,0.238,0.141,0.085,�k��,3.5,��
2021/01/18,08:50,0.178,0.157,0.255,0.241,0.237,0.140,0.085,�k��,3.6,��
2021/01/18,09:00,0.176,0.159,0.255,0.242,0.237,0.141,0.085,�k��,3.8,��
2021/01/18,09:10,0.177,0.158,0.254,0.242,0.238,0.140,0.085,�k��,3.7,��
2021/01/18,09:20,0.176,0.158,0.255,0.241,0.239,0.140,0.084,�k��,3.1,��
2021/01/18,09:30,0.178,0.158,0.255,0.241,0.238,0.139,0.085,�k�k��,3.1,��
2021/01/18,09:40,0.177,0.158,0.257,0.243,0.239,0.140,0.085,�k��,2.8,��
2021/01/18,09:50,0.178,0.158,0.257,0.241,0.239,0.140,0.085,�k,0.7,��
2021/01/18,10:00,0.177,0.158,0.255,0.241,0.238,0.140,0.085,�k�k��,1.0,��
2021/01/18,10:10,0.177,0.157,0.256,0.242,0.240,0.140,0.085,��,1.4,��
2021/01/18,10:20,0.176,0.159,0.256,0.243,0.238,0.141,0.085,���k��,0.9,��
2021/01/18,10:30,0.177,0.159,0.254,0.241,0.238,0.141,0.085,���쓌,1.5,��
2021/01/18,10:40,0.177,0.158,0.254,0.242,0.238,0.140,0.085,�쓌,0.7,��
2021/01/18,10:50,0.176,0.158,0.255,0.244,0.239,0.140,0.085,��,1.6,��
2021/01/18,11:00,0.177,0.160,0.256,0.243,0.241,0.140,0.086,���쓌,1.4,��
2021/01/18,11:10,0.176,0.159,0.254,0.241,0.237,0.141,0.086,���k��,1.0,��
2021/01/18,11:20,0.176,0.158,0.256,0.241,0.239,0.140,0.084,��,1.5,��
2021/01/18,11:30,0.177,0.159,0.256,0.243,0.240,0.141,0.086,���쓌,1.2,��
2021/01/18,11:40,0.178,0.158,0.256,0.243,0.238,0.141,0.085,��,2.1,��
2021/01/18,11:50,0.178,0.160,0.257,0.242,0.239,0.140,0.085,���쓌,1.5,��
2021/01/18,12:00,0.178,0.159,0.258,0.242,0.240,0.140,0.086,�쓌,1.8,��
2021/01/18,12:10,0.178,0.159,0.256,0.242,0.239,0.141,0.085,���쓌,2.3,��
2021/01/18,12:20,0.177,0.159,0.255,0.242,0.238,0.140,0.085,��,2.3,��
2021/01/18,12:30,0.177,0.159,0.256,0.243,0.240,0.140,0.085,�쓌,2.5,��
2021/01/18,12:40,0.178,0.159,0.256,0.244,0.239,0.141,0.085,���쓌,2.2,��
2021/01/18,12:50,0.177,0.159,0.254,0.242,0.238,0.141,0.085,�쓌,2.6,��
2021/01/18,13:00,0.176,0.159,0.256,0.242,0.239,0.141,0.085,���쓌,4.0,��
2021/01/18,13:10,0.177,0.158,0.255,0.243,0.239,0.141,0.085,�쓌,3.6,��
2021/01/18,13:20,0.177,0.158,0.255,0.242,0.240,0.140,0.085,�쓌,3.3,��
2021/01/18,13:30,0.178,0.158,0.257,0.243,0.239,0.140,0.085,�쓌,3.9,��
2021/01/18,13:40,0.177,0.160,0.258,0.242,0.239,0.140,0.086,��쓌,3.6,��
2021/01/18,13:50,0.177,0.159,0.256,0.243,0.239,0.141,0.085,�쓌,4.5,��
2021/01/18,14:00,0.177,0.158,0.256,0.242,0.239,0.141,0.085,��쓌,4.8,��
2021/01/18,14:10,0.176,0.158,0.258,0.243,0.238,0.141,0.085,��쓌,4.7,��
2021/01/18,14:20,0.178,0.159,0.255,0.243,0.239,0.140,0.085,�쓌,3.9,��
2021/01/18,14:30,0.177,0.158,0.256,0.244,0.238,0.141,0.086,�쓌,4.0,��
2021/01/18,14:40,0.178,0.158,0.256,0.244,0.238,0.140,0.085,��쓌,3.8,��
2021/01/18,14:50,0.177,0.158,0.257,0.243,0.240,0.141,0.085,�쓌,4.1,��
2021/01/18,15:00,0.178,0.158,0.257,0.243,0.238,0.141,0.085,��쓌,4.2,��
2021/01/18,15:10,0.177,0.158,0.256,0.245,0.239,0.140,0.085,��쓌,4.0,��
2021/01/18,15:20,0.178,0.160,0.256,0.244,0.239,0.140,0.085,��쓌,3.9,��
2021/01/18,15:30,0.177,0.160,0.258,0.243,0.238,0.141,0.086,��쓌,3.7,��
2021/01/18,15:40,0.177,0.159,0.255,0.243,0.240,0.141,0.086,��쓌,3.5,��
2021/01/18,15:50,0.177,0.160,0.257,0.244,0.239,0.141,0.085,��쓌,4.5,��
2021/01/18,16:00,0.177,0.159,0.257,0.243,0.239,0.141,0.085,��,4.0,��
2021/01/18,16:10,0.178,0.159,0.258,0.243,0.237,0.141,0.085,��,5.4,��
2021/01/18,16:20,0.178,0.159,0.257,0.243,0.238,0.142,0.085,��,5.2,��
2021/01/18,16:30,0.178,0.159,0.256,0.243,0.239,0.141,0.086,��쓌,4.8,��
2021/01/18,16:40,0.178,0.159,0.256,0.243,0.239,0.140,0.085,��,4.4,��
2021/01/18,16:50,0.177,0.158,0.257,0.242,0.239,0.142,0.086,��,4.6,��
2021/01/18,17:00,0.178,0.158,0.256,0.243,0.240,0.141,0.086,��,4.8,��
2021/01/18,17:10,0.177,0.159,0.257,0.243,0.240,0.142,0.086,��,4.6,��
2021/01/18,17:20,0.177,0.160,0.256,0.243,0.240,0.141,0.086,��,4.3,��
2021/01/18,17:30,0.178,0.160,0.258,0.243,0.239,0.140,0.085,��,4.4,��
2021/01/18,17:40,0.176,0.160,0.258,0.243,0.238,0.141,0.085,��쐼,4.1,��
2021/01/18,17:50,0.178,0.159,0.256,0.243,0.239,0.141,0.085,�쐼,4.5,��
2021/01/18,18:00,0.178,0.159,0.256,0.243,0.239,0.141,0.086,��쐼,5.4,��
2021/01/18,18:10,0.178,0.160,0.257,0.244,0.239,0.141,0.086,��쐼,4.8,��
2021/01/18,18:20,0.178,0.160,0.258,0.244,0.238,0.142,0.085,�쐼,5.4,��
2021/01/18,18:30,0.178,0.159,0.257,0.243,0.240,0.142,0.086,�쐼,5.4,��
2021/01/18,18:40,0.178,0.159,0.257,0.244,0.239,0.141,0.086,��쐼,4.5,��
2021/01/18,18:50,0.179,0.160,0.257,0.243,0.240,0.142,0.086,�쐼,4.3,��
2021/01/18,19:00,0.178,0.159,0.258,0.243,0.239,0.140,0.086,�쐼,4.3,��
2021/01/18,19:10,0.178,0.160,0.255,0.244,0.238,0.141,0.087,���쐼,1.5,��
2021/01/18,19:20,0.177,0.160,0.256,0.242,0.240,0.141,0.085,��,2.6,��
2021/01/18,19:30,0.179,0.160,0.258,0.244,0.239,0.141,0.086,��,1.6,��
2021/01/18,19:40,0.178,0.160,0.257,0.243,0.238,0.141,0.087,�k��,1.3,��
2021/01/18,19:50,0.178,0.161,0.257,0.243,0.238,0.142,0.086,���k��,0.7,��
2021/01/18,20:00,0.178,0.160,0.258,0.243,0.239,0.142,0.085,���k��,1.2,��
2021/01/18,20:10,0.178,0.159,0.256,0.244,0.239,0.141,0.086,��,2.2,��
2021/01/18,20:20,0.178,0.159,0.256,0.244,0.240,0.141,0.085,���쐼,1.4,��
2021/01/18,20:30,0.178,0.160,0.256,0.242,0.239,0.141,0.086,��,3.3,��
2021/01/18,20:40,0.179,0.159,0.257,0.244,0.239,0.141,0.086,��,4.7,��
2021/01/18,20:50,0.179,0.160,0.257,0.243,0.240,0.142,0.086,��,6.0,��
2021/01/18,21:00,0.178,0.159,0.256,0.243,0.238,0.141,0.086,��,5.7,��
2021/01/18,21:10,0.178,0.159,0.256,0.243,0.239,0.141,0.085,��,4.6,��
2021/01/18,21:20,0.178,0.160,0.256,0.243,0.239,0.141,0.086,���쐼,1.5,��
2021/01/18,21:30,0.179,0.159,0.257,0.242,0.238,0.141,0.086,�쐼,1.3,��
2021/01/18,21:40,0.178,0.160,0.256,0.244,0.238,0.141,0.086,��,5.9,��
2021/01/18,21:50,0.179,0.160,0.256,0.244,0.238,0.141,0.086,��,5.4,��
2021/01/18,22:00,0.177,0.159,0.257,0.244,0.239,0.141,0.086,���쐼,4.5,��
2021/01/18,22:10,0.177,0.159,0.256,0.243,0.239,0.140,0.086,�쐼,4.3,��
2021/01/18,22:20,0.178,0.159,0.256,0.244,0.239,0.142,0.086,�쐼,4.7,��
2021/01/18,22:30,0.178,0.159,0.256,0.242,0.240,0.141,0.086,�쐼,4.8,��
2021/01/18,22:40,0.178,0.160,0.257,0.244,0.239,0.141,0.086,�쐼,4.4,��
2021/01/18,22:50,0.177,0.160,0.257,0.243,0.238,0.142,0.086,�쐼,4.9,��
2021/01/18,23:00,0.178,0.160,0.257,0.243,0.239,0.141,0.085,���쐼,6.2,��
2021/01/18,23:10,0.179,0.159,0.255,0.243,0.239,0.141,0.086,���쐼,9.2,��
2021/01/18,23:20,0.178,0.160,0.257,0.243,0.239,0.142,0.087,���쐼,8.4,��
2021/01/18,23:30,0.178,0.160,0.257,0.243,0.239,0.141,0.085,���쐼,5.6,��
2021/01/18,23:40,0.177,0.160,0.257,0.244,0.239,0.141,0.087,���쐼,8.1,��
2021/01/18,23:50,0.178,0.160,0.257,0.243,0.239,0.140,0.085,���쐼,9.3,��
